Wind_Speed
19 19 19 19 19 19 18 18 18 18 18 18 18 17 17 16 16 15 15 15 14 14 15 17 19 20 21 22 23 22 21 19 19 18 13 12 14 14 14 19 22 25 26 25 25 24 22 21 18 16 14 14 12 10 12 12 10 8 6 7 6 2 4 0 5 7 7 9 7 7 7 7 8 7 7 9 8 6 8 7 6 8 9 7 10 12 13 15
18 19 19 19 20 20 20 19 19 19 19 18 18 17 17 16 16 16 16 15 14 14 14 15 16 18 20 21 22 23 22 21 22 18 11 13 15 13 13 16 19 23 26 27 26 25 23 22 20 18 16 15 13 11 13 14 12 10 7 8 8 6 5 2 4 5 6 7 6 5 5 5 6 6 8 9 7 6 8 7 5 7 7 5 9 12 14 15
18 18 19 19 20 20 20 20 20 20 20 19 19 18 17 16 16 16 16 16 15 14 14 14 14 16 18 19 22 23 22 23 23 17 12 14 15 12 12 13 17 21 24 26 25 24 23 22 20 19 18 15 13 13 14 15 14 11 9 10 9 6 4 2 3 4 6 6 5 4 5 5 5 6 7 7 7 6 7 8 7 7 4 4 8 10 12 15
18 18 19 19 19 20 20 20 20 20 20 21 20 19 18 17 16 16 17 16 15 14 13 13 14 16 16 17 19 20 22 22 22 20 16 16 17 15 12 11 15 18 22 24 24 24 23 22 22 20 19 16 14 15 15 15 13 10 11 13 11 5 5 4 4 3 4 5 5 5 5 4 5 6 6 6 6 6 7 7 9 9 4 5 7 7 10 14
18 18 18 19 19 20 20 20 20 20 20 21 21 20 19 18 17 17 17 17 16 14 13 13 13 16 15 16 17 19 19 15 18 24 19 17 19 18 14 12 14 17 20 23 25 25 25 24 24 22 21 18 16 17 18 16 13 10 11 13 10 4 3 4 3 3 4 4 4 4 3 5 6 6 5 6 5 5 6 7 9 9 4 6 7 6 8 12
17 18 18 18 19 19 19 20 20 20 20 20 21 20 19 19 18 18 18 17 16 15 14 13 14 16 16 15 15 17 16 12 16 22 18 18 21 19 17 14 14 17 20 23 26 26 26 25 25 26 24 21 19 19 18 16 15 13 12 12 9 7 6 3 3 4 3 2 2 2 2 5 5 4 5 6 5 5 6 7 10 8 3 5 7 7 7 10
18 18 18 19 19 19 19 19 19 19 19 20 20 20 19 19 19 19 18 17 16 15 15 14 15 16 16 16 15 16 18 17 19 19 14 17 20 19 19 16 15 18 21 24 26 27 27 27 27 27 24 22 20 20 19 16 18 17 13 11 10 9 10 7 6 7 5 3 3 2 1 3 3 4 4 6 7 6 6 8 11 7 2 3 5 7 8 9
19 20 20 20 20 20 19 19 19 19 19 19 19 19 19 18 19 20 19 18 17 16 16 15 16 17 16 16 15 16 14 10 15 22 18 15 17 20 19 18 17 18 20 24 26 26 27 27 28 26 24 22 19 19 19 17 19 21 17 12 11 10 10 11 10 9 8 6 6 5 5 5 5 4 4 6 8 8 6 9 11 6 2 3 3 7 9 10
20 21 21 21 21 21 20 20 20 20 20 19 19 19 18 18 19 19 20 20 18 17 17 17 17 17 17 16 17 16 9 8 17 25 22 17 17 19 19 19 19 18 19 22 25 26 26 27 27 26 22 20 19 18 18 19 20 20 19 15 13 12 11 11 12 11 11 9 8 8 7 7 6 6 6 7 9 10 8 10 11 5 1 2 2 5 9 11
21 22 22 22 22 22 21 21 21 21 21 20 20 19 18 18 18 18 19 20 20 18 17 18 18 18 18 17 18 15 9 13 23 25 22 21 20 18 18 18 17 18 19 21 24 26 26 25 25 24 20 17 18 19 19 21 19 15 16 17 16 15 13 13 13 13 13 12 11 10 9 8 8 7 8 9 11 11 10 12 10 6 5 3 1 3 8 12
23 23 23 23 23 23 22 22 22 22 22 21 21 20 19 18 18 17 18 19 20 19 19 18 19 19 19 20 20 16 12 14 21 25 24 23 23 20 17 16 15 17 18 21 23 25 26 24 21 21 21 19 18 19 20 22 19 14 12 15 17 17 16 16 16 16 15 14 12 11 11 10 10 10 9 9 13 13 12 13 10 7 7 7 5 3 6 12
24 24 24 25 25 24 23 23 23 23 23 23 22 20 20 19 18 17 18 19 19 20 20 19 20 20 21 22 17 12 14 16 19 24 24 22 22 22 20 17 16 16 17 19 21 23 24 23 21 21 21 19 18 16 19 22 22 19 15 15 16 17 19 19 19 18 16 16 13 11 13 13 14 13 10 10 14 14 13 13 11 10 9 8 9 7 5 11
26 26 26 26 26 25 25 24 24 24 24 24 23 22 21 20 19 18 18 18 18 19 19 20 21 20 23 23 14 12 16 19 22 23 22 21 20 22 24 22 18 17 17 18 19 20 21 22 22 23 20 17 17 16 15 17 20 21 19 18 17 18 21 20 20 20 18 17 14 12 13 13 14 15 13 12 14 14 13 14 12 13 12 9 10 9 7 9
27 27 27 28 28 27 26 26 25 25 25 25 24 23 22 21 20 19 18 18 18 18 19 21 21 22 25 21 14 16 19 21 23 22 22 22 20 21 24 24 21 19 19 19 19 19 20 21 21 23 23 20 17 15 15 15 18 20 19 20 20 20 20 20 21 22 21 19 16 15 14 12 10 14 16 14 15 13 14 16 12 15 17 13 12 10 9 8
28 28 29 29 29 29 28 28 27 26 26 26 26 24 23 23 21 20 19 19 18 18 18 20 21 23 25 21 19 19 19 22 23 21 23 23 22 22 23 24 23 20 21 21 20 19 20 22 22 23 24 23 19 16 17 18 19 20 20 22 23 22 19 18 21 23 22 20 18 18 16 12 10 13 16 15 15 12 14 17 13 15 19 16 14 13 11 8
29 29 30 30 31 30 29 29 29 27 27 27 27 26 25 24 23 21 21 20 19 18 18 19 20 23 24 22 22 20 21 22 20 20 23 23 22 22 23 25 24 22 23 23 22 20 22 23 24 24 22 23 24 19 16 19 22 22 23 23 22 24 21 17 20 22 22 20 20 20 17 13 11 13 14 15 14 11 13 16 15 17 20 18 15 15 14 11
29 30 30 31 31 31 30 29 30 28 28 28 28 27 26 25 24 23 22 21 20 19 19 19 20 23 24 23 22 19 22 23 21 22 23 24 22 19 23 26 25 25 24 25 25 22 23 24 23 24 24 24 26 23 20 23 26 24 24 24 21 22 23 19 19 21 22 21 20 20 18 14 11 13 14 16 14 11 11 15 17 17 21 20 15 15 17 14
31 31 30 31 31 32 31 30 30 29 28 28 28 28 27 26 25 25 24 22 21 21 19 19 21 21 17 19 22 20 21 23 24 25 23 25 24 21 24 26 24 25 24 25 26 24 25 26 23 23 26 28 28 29 30 27 26 25 24 24 23 21 23 24 21 20 21 23 22 20 19 17 15 14 14 15 15 13 11 13 18 18 20 21 16 16 18 17
32 32 32 32 32 32 31 30 31 30 29 28 28 28 28 27 26 27 27 23 23 22 17 19 23 19 12 13 17 21 23 24 26 26 25 26 28 26 24 24 24 25 24 23 26 27 27 26 26 27 31 33 33 34 33 28 22 23 23 23 23 23 22 22 21 20 19 23 25 24 21 19 18 18 16 16 16 15 13 13 17 18 20 20 17 16 18 18
34 33 34 34 34 34 32 31 30 30 30 28 27 26 27 27 24 26 28 25 24 23 20 23 25 20 20 16 14 20 25 24 26 27 26 27 30 29 25 23 23 24 25 24 25 27 27 28 32 35 34 32 33 31 29 27 23 22 22 22 24 25 24 20 20 20 17 21 24 23 23 21 19 20 19 18 17 17 16 14 17 18 20 20 17 16 17 19
35 34 34 35 35 35 34 32 31 30 30 29 27 25 24 25 22 25 30 28 25 26 26 27 27 24 23 21 19 23 24 21 25 27 28 30 31 31 29 27 26 27 28 25 22 24 27 32 36 35 31 28 29 29 27 27 27 25 23 23 24 25 25 21 21 22 18 18 20 20 22 22 21 21 20 17 16 18 18 16 16 18 20 18 17 15 15 20
36 35 35 35 35 36 35 33 32 31 29 29 27 25 24 23 23 26 31 32 26 25 28 26 28 27 23 25 27 28 26 23 25 29 31 33 34 33 32 31 30 29 29 26 24 25 30 36 35 30 29 27 26 27 29 28 28 28 24 23 24 23 23 22 22 24 22 19 19 20 22 23 23 22 21 19 18 19 20 19 17 17 21 18 15 14 16 21
37 36 35 34 34 35 35 33 32 31 28 27 26 26 25 23 23 25 29 34 29 24 28 27 27 27 23 27 31 30 30 27 25 28 33 36 37 34 32 33 32 29 30 32 31 30 32 34 32 29 27 28 27 26 28 29 29 30 27 25 25 22 21 23 23 23 23 20 18 20 23 24 23 23 24 23 22 21 20 21 19 17 21 20 15 13 16 22
38 38 37 35 34 34 35 33 31 30 28 27 26 25 24 22 23 24 26 34 35 28 27 26 27 29 25 25 28 31 33 31 27 27 33 38 39 36 32 33 33 30 31 35 34 33 31 25 24 29 27 28 29 27 27 29 30 30 30 29 27 24 22 22 22 23 25 23 20 21 23 25 25 24 25 25 24 23 21 23 22 19 20 21 16 13 15 19
37 37 36 36 34 33 35 34 31 29 28 27 27 25 24 22 20 22 25 28 33 29 25 26 27 28 26 25 30 32 31 34 33 29 32 37 38 38 33 31 33 33 32 34 34 34 30 20 18 27 30 28 29 29 28 28 28 29 32 31 27 25 24 22 21 21 23 23 22 23 21 22 26 26 26 26 26 26 25 25 25 22 21 22 18 16 17 17
35 35 35 35 35 32 32 33 31 29 27 25 25 24 23 22 18 19 21 22 26 26 24 24 23 23 25 30 34 30 28 36 38 32 32 36 37 37 33 31 33 33 32 31 31 32 31 24 20 24 29 29 29 30 29 28 27 27 28 30 29 27 25 24 24 24 22 20 20 23 21 20 24 27 27 27 27 28 27 26 26 24 22 24 21 19 20 17
34 33 32 33 34 33 31 31 30 28 26 24 23 23 21 19 16 13 14 15 15 12 16 19 19 19 22 28 34 31 23 25 35 38 35 35 38 38 34 32 32 31 30 28 30 32 30 28 25 23 27 29 31 30 28 28 28 25 22 22 27 30 29 25 24 24 23 20 20 23 25 24 24 25 24 26 29 30 29 26 25 25 23 24 22 20 22 19
33 32 31 30 31 32 31 31 30 28 26 23 22 21 18 16 12 8 7 8 4 5 9 15 18 18 20 25 32 34 22 12 25 41 39 36 38 40 37 34 31 29 30 31 32 30 28 30 30 26 27 29 31 30 27 27 28 24 19 18 21 25 29 29 27 24 21 20 22 25 26 22 21 24 21 22 28 29 27 25 24 24 25 26 23 20 22 19
34 32 31 29 29 29 29 30 29 27 25 23 21 19 16 13 8 5 6 7 4 5 6 8 12 15 20 22 24 30 25 13 17 29 37 39 38 39 39 35 30 28 30 33 31 26 24 29 30 28 29 29 28 27 25 26 27 23 18 18 18 17 21 26 28 27 23 21 23 26 27 21 17 24 26 25 28 27 25 25 25 26 27 27 24 20 19 17
33 33 31 30 29 28 28 28 28 27 26 22 19 18 15 8 4 7 9 8 6 3 5 7 7 9 15 16 18 26 27 20 15 18 32 40 38 38 35 31 30 28 30 33 33 28 23 23 28 30 29 27 24 24 24 25 25 22 20 18 16 14 16 18 23 26 22 20 25 28 30 24 17 20 26 27 29 27 25 25 26 27 28 27 25 21 19 17
32 32 31 30 29 27 26 26 25 25 24 21 18 16 12 6 8 12 9 6 5 1 3 6 4 5 12 13 15 23 27 24 17 19 32 37 36 38 33 29 32 29 29 34 34 32 27 23 26 30 29 26 23 22 23 24 24 23 22 20 16 15 16 15 19 22 16 15 23 28 29 27 22 21 23 24 26 28 27 27 27 29 29 29 27 24 20 18
30 30 30 30 29 28 25 24 23 22 21 19 16 12 8 8 14 17 13 10 5 2 3 4 0 4 9 12 15 20 26 27 21 22 33 37 37 42 41 37 37 33 31 35 34 32 33 30 26 25 29 29 25 23 22 23 26 25 24 24 19 14 14 13 14 16 15 16 20 24 25 28 30 28 23 22 23 25 26 27 27 29 30 30 28 25 23 20
30 30 30 30 29 27 24 22 21 19 18 16 13 10 8 12 14 16 19 16 7 3 2 3 9 10 9 13 15 16 22 27 26 24 30 35 35 40 43 39 37 36 29 28 31 31 31 31 29 26 28 31 30 27 26 26 28 29 27 27 21 13 10 11 11 11 14 17 20 22 22 25 31 28 26 28 25 22 23 25 26 28 29 30 29 25 22 22
30 30 30 30 30 28 25 21 18 16 15 14 10 9 12 16 14 16 20 13 10 12 12 13 17 14 13 15 16 16 19 24 27 26 27 33 35 36 41 41 39 37 28 24 30 32 26 27 35 35 30 32 35 32 27 24 26 29 28 25 24 19 12 9 10 11 11 14 19 23 20 21 24 20 20 27 28 25 23 24 25 26 27 29 30 28 23 23
30 31 31 31 30 27 24 21 17 14 13 11 9 12 16 17 15 16 15 13 16 19 20 20 18 16 16 17 17 17 18 20 25 29 28 31 36 35 37 42 42 38 32 26 27 31 29 27 34 38 31 30 36 35 28 23 24 28 27 26 28 27 19 11 11 14 14 12 14 21 22 21 20 16 14 18 24 28 26 23 23 25 25 27 30 33 27 24
31 31 28 27 27 27 25 21 17 14 11 9 11 15 17 16 14 12 10 17 19 21 24 19 15 15 17 17 17 17 17 16 19 28 29 29 33 33 32 36 41 41 38 31 24 25 29 26 26 34 35 30 33 35 33 27 23 25 30 32 30 26 21 15 11 13 14 10 10 17 22 21 17 15 16 15 17 24 29 28 25 24 26 26 28 32 29 26
30 29 25 25 28 28 25 22 17 13 10 9 14 17 16 16 15 14 14 18 18 19 20 15 13 13 13 16 17 17 17 16 16 23 27 27 28 31 31 31 35 40 39 35 27 22 23 23 23 33 37 32 30 32 34 31 25 24 30 32 26 21 21 18 12 10 10 8 9 15 19 19 17 14 16 19 18 21 27 31 29 27 27 27 26 29 30 29
29 25 18 22 29 27 24 21 15 11 10 12 15 17 16 16 14 14 15 17 17 16 15 16 17 16 15 13 10 7 10 14 16 17 23 25 22 25 28 24 29 40 41 35 30 23 20 20 22 31 35 31 29 31 33 35 30 25 24 27 25 22 21 21 15 10 9 7 8 14 16 17 19 16 14 18 22 22 22 26 29 28 28 27 27 28 30 29
26 20 10 20 28 24 22 20 14 10 11 14 15 14 12 12 12 13 15 17 17 15 15 18 19 19 20 18 12 6 5 9 11 13 21 23 19 23 26 17 19 34 41 38 34 26 21 20 19 28 34 29 30 34 36 38 37 29 22 24 28 24 21 23 19 13 11 7 6 11 13 15 20 21 17 14 17 21 22 23 25 25 25 26 26 28 29 29
23 17 9 22 25 21 20 17 12 10 11 13 14 15 14 14 14 15 14 15 16 14 15 19 19 20 22 19 16 13 12 12 15 15 17 14 10 17 26 20 16 25 34 39 37 28 21 22 19 23 31 31 32 37 38 37 39 37 29 27 29 26 22 21 22 21 16 9 6 7 8 11 14 16 17 15 13 16 20 22 22 23 24 24 24 26 27 28
21 13 12 20 21 18 17 14 9 8 9 11 11 13 15 15 16 15 14 14 14 13 15 20 21 21 23 21 18 15 14 17 17 14 14 10 6 5 16 21 19 22 28 33 38 30 18 19 23 22 29 34 35 35 35 35 37 38 35 30 28 28 25 18 15 21 21 15 9 6 6 3 5 7 11 14 14 13 15 18 19 21 23 23 24 24 25 26
18 12 15 18 18 16 15 10 8 9 9 10 12 12 14 14 14 14 14 14 13 12 14 17 20 20 22 22 20 17 16 18 18 15 15 9 4 3 7 12 14 18 23 26 36 36 20 14 21 23 26 30 30 29 30 32 34 35 34 31 27 27 29 21 13 16 21 19 14 10 7 2 8 9 9 10 12 12 12 15 16 16 18 20 22 23 24 25
17 13 16 18 17 14 13 10 9 10 9 11 13 13 12 13 14 13 14 15 14 12 11 13 16 17 18 17 19 20 18 18 18 19 16 8 4 9 11 9 9 10 15 18 27 36 29 18 18 20 21 23 25 27 28 29 31 34 35 34 31 29 29 24 16 14 17 18 17 12 8 5 10 12 11 9 8 9 10 13 15 15 15 17 19 20 21 23
17 14 14 17 16 12 10 11 11 11 12 12 14 13 11 11 12 13 15 15 13 12 12 13 15 15 15 14 15 17 17 16 16 17 15 10 7 11 13 11 8 4 13 20 22 27 30 26 21 17 15 17 21 22 26 31 34 34 35 36 34 31 28 25 20 16 15 17 18 14 9 8 10 10 8 7 6 7 9 11 14 16 15 15 17 18 20 23
16 14 14 16 14 8 8 10 10 11 13 13 14 13 11 11 11 13 15 14 12 12 13 14 15 16 16 15 14 15 16 18 19 15 11 11 9 9 9 10 7 2 16 29 27 21 21 25 27 21 14 13 15 16 23 33 35 33 33 35 36 34 31 28 24 19 16 15 16 15 9 10 11 7 6 7 7 8 9 10 14 17 15 14 16 18 21 22
14 14 16 16 11 5 8 11 9 11 12 13 13 12 11 12 11 12 13 12 12 13 12 12 14 15 15 14 14 14 17 20 22 18 14 14 12 9 7 7 3 7 20 29 27 18 12 19 28 30 24 13 8 9 15 25 32 32 32 33 35 36 34 30 27 24 19 15 15 16 12 9 11 9 6 8 10 11 12 11 14 17 16 12 14 18 19 18
11 12 15 16 11 7 11 12 9 10 11 12 13 12 12 12 12 12 11 11 13 14 13 12 11 11 12 13 13 13 15 18 20 19 16 16 12 9 6 4 4 7 16 19 20 15 11 18 24 29 31 19 5 2 4 15 28 31 32 33 33 35 36 33 31 26 20 17 15 17 16 10 7 9 9 11 13 14 14 14 14 15 14 10 11 14 13 14
10 10 11 13 13 13 15 14 12 11 11 11 12 12 11 11 12 12 12 12 12 12 13 11 9 10 12 12 13 13 13 13 12 9 10 11 8 7 6 4 2 4 4 4 9 10 11 18 21 25 31 25 14 8 5 10 20 21 26 34 33 33 36 37 34 27 22 20 15 14 20 19 10 8 11 15 16 15 15 14 12 13 13 9 9 10 9 12
12 12 12 13 14 14 14 15 14 12 11 12 12 9 8 11 12 12 12 13 13 13 13 10 8 12 13 11 12 13 12 11 9 7 6 3 4 4 6 2 1 2 0 2 4 7 12 17 18 21 26 25 19 13 10 10 13 13 18 29 33 32 33 34 33 29 25 22 16 12 16 21 18 11 11 14 14 12 12 9 8 11 10 6 5 7 7 10
13 14 15 16 16 13 13 13 13 13 12 11 10 8 8 11 12 12 12 13 14 15 13 10 10 13 14 12 12 13 13 13 12 10 7 2 2 6 9 2 4 6 3 4 5 4 13 14 14 15 19 23 21 15 12 11 10 11 14 21 27 31 31 32 32 30 27 24 21 16 13 15 18 17 13 12 11 10 10 9 8 9 8 7 5 5 7 10
13 14 16 18 17 14 12 13 13 13 12 9 9 10 10 12 12 13 14 12 11 12 11 11 13 14 14 15 14 14 13 14 15 13 11 10 10 11 10 4 1 7 6 4 5 2 7 7 10 11 14 19 20 17 15 13 11 15 18 17 20 25 28 29 28 28 28 25 23 22 19 15 14 15 15 14 13 13 12 11 12 12 11 9 9 7 8 10
13 13 14 17 18 15 12 13 14 13 12 9 10 12 12 12 12 13 14 12 10 10 12 13 15 14 14 15 16 15 14 14 16 16 14 14 13 12 11 10 8 8 8 6 7 5 4 5 6 11 14 17 18 20 20 14 12 20 24 21 19 19 20 21 21 22 22 21 21 21 18 14 12 12 14 13 13 14 13 13 13 13 14 15 14 11 9 9
Wind_Direction
305 303 300 298 297 296 296 295 296 295 294 293 291 289 288 287 287 285 284 284 283 277 271 266 262 258 253 249 249 250 250 250 253 255 254 248 244 243 234 227 221 217 219 218 219 219 220 223 226 227 225 233 238 240 247 252 252 252 264 259 268 251 199 307 71 98 103 110 112 126 124 115 119 110 110 107 110 127 119 138 165 144 139 165 196 178 166 177
310 307 304 301 298 296 295 294 294 294 295 295 294 292 289 288 286 284 281 281 281 280 276 270 265 261 256 252 249 248 248 249 250 251 252 252 248 243 235 230 223 218 218 218 216 216 218 220 223 228 226 231 237 235 240 251 254 243 246 254 259 232 189 84 82 95 88 101 101 130 145 134 137 130 118 115 125 129 129 145 154 157 166 176 181 174 167 172
313 311 309 306 303 300 296 295 294 293 294 293 293 293 292 289 286 284 280 278 277 278 278 274 269 264 259 254 251 250 249 248 250 249 240 248 251 242 233 228 223 218 217 218 217 214 216 218 219 223 225 225 229 229 232 243 250 242 240 249 250 226 192 119 111 99 82 87 88 116 143 149 153 147 126 129 143 133 146 155 152 170 193 187 179 181 171 168
314 313 311 309 307 305 302 299 296 295 293 291 292 291 292 291 287 283 280 278 275 274 274 274 271 266 261 256 253 252 250 252 256 252 238 237 246 245 238 227 222 218 215 214 214 213 212 214 215 217 220 218 219 222 226 232 240 240 236 246 256 244 207 176 131 114 111 85 80 101 127 145 146 155 141 140 153 144 165 168 164 183 199 181 182 185 178 173
316 314 312 310 309 308 306 304 302 299 295 293 291 290 290 289 287 283 279 278 274 271 269 270 269 265 262 256 253 250 250 257 261 252 239 232 237 244 242 231 222 215 211 210 210 210 208 211 211 211 212 212 217 222 224 228 236 241 239 249 259 258 226 179 154 157 137 88 85 96 115 140 142 162 162 161 159 128 157 170 171 191 200 174 178 180 186 183
320 318 315 312 311 309 308 306 305 303 300 296 293 291 289 287 286 282 279 277 274 271 266 264 264 264 263 256 252 250 239 228 245 250 242 234 234 238 238 231 224 215 208 206 208 209 206 207 209 209 209 209 217 224 226 228 234 241 244 249 251 250 254 221 197 207 175 118 139 88 105 143 150 174 179 181 166 116 134 152 167 189 196 173 182 179 188 190
327 323 320 317 315 312 311 309 308 305 302 299 297 295 291 288 284 281 280 278 275 270 265 261 258 260 262 258 252 250 241 229 241 251 242 235 231 231 234 227 223 218 209 205 205 207 206 206 209 207 208 212 217 224 228 230 233 238 242 245 248 248 246 239 236 232 224 224 223 253 205 175 188 191 184 194 183 156 139 140 165 181 129 161 194 185 185 189
328 325 323 321 319 316 315 314 311 308 305 303 301 299 296 291 284 281 280 278 275 270 264 259 255 257 259 260 255 250 251 232 235 244 235 228 227 224 228 223 220 220 213 209 205 205 207 207 210 206 207 215 218 224 227 229 233 235 236 239 243 245 242 239 239 235 233 241 245 246 240 223 218 217 206 198 185 178 164 151 172 195 92 111 186 192 189 183
326 325 323 321 319 317 318 317 314 311 308 306 304 302 300 294 288 284 280 278 275 270 265 259 255 255 254 259 257 250 248 195 212 236 231 218 224 221 222 221 218 218 214 212 207 205 208 209 210 205 207 218 221 227 226 226 231 234 236 237 241 245 241 239 236 235 236 238 243 241 239 233 227 231 220 200 185 181 176 168 183 227 272 114 143 197 198 187
324 323 322 320 318 317 318 317 315 313 310 308 307 305 302 297 292 287 282 277 274 270 266 260 256 254 252 253 253 249 241 214 216 233 232 217 220 218 216 218 215 215 212 210 207 207 207 209 212 206 209 223 226 230 227 224 229 233 237 236 239 243 240 239 236 233 234 236 241 238 238 235 227 227 217 200 189 185 178 178 195 242 256 223 176 192 203 196
322 320 319 317 315 315 317 316 314 312 310 308 306 306 303 299 296 290 285 278 274 271 266 262 257 254 252 248 248 246 237 227 224 232 235 225 222 215 210 215 217 214 212 210 208 209 208 206 208 208 213 223 226 231 230 225 226 231 237 236 238 242 241 240 236 232 231 235 237 234 240 239 226 222 215 196 186 187 184 186 203 226 238 241 231 215 207 202
318 317 315 313 312 312 313 312 311 310 309 306 305 305 304 300 297 293 287 282 276 271 266 263 258 254 252 246 244 243 232 228 227 230 233 230 226 216 211 218 218 216 213 210 207 208 210 205 204 208 213 222 224 228 234 230 228 234 239 241 241 241 242 239 233 231 227 229 229 228 239 236 227 219 207 188 180 184 189 191 202 209 221 239 235 234 221 207
315 314 312 310 309 309 310 308 307 307 305 304 304 304 303 301 298 294 290 285 279 272 267 262 259 256 253 249 240 232 228 225 226 227 227 228 226 216 216 222 218 214 212 205 206 209 209 206 206 209 211 220 223 224 233 228 226 233 237 241 244 241 241 235 229 226 222 225 221 222 237 233 226 214 201 189 182 187 191 190 198 203 210 229 232 235 232 220
314 313 311 309 308 307 307 305 304 304 302 301 301 301 301 299 297 295 290 286 281 275 268 263 260 257 254 252 242 231 229 230 230 227 225 226 225 218 216 219 215 212 209 198 200 210 209 207 209 214 216 218 220 227 237 229 223 229 234 238 239 240 240 230 222 218 216 220 214 218 232 233 221 198 193 191 187 193 194 193 203 200 203 219 226 230 233 230
316 314 312 310 307 306 306 304 302 301 299 298 298 297 297 296 296 293 289 287 282 276 271 265 261 258 257 254 244 231 226 233 233 226 226 224 222 222 217 215 213 211 210 199 195 207 209 206 210 214 218 219 217 228 236 229 224 223 227 232 230 234 239 227 217 213 214 215 210 215 225 232 221 187 183 188 192 199 197 199 210 200 199 215 223 222 224 228
319 316 314 311 309 307 305 303 301 299 298 296 295 294 294 293 292 290 288 285 281 278 272 266 262 259 258 254 245 232 225 232 233 224 224 220 214 220 220 216 214 210 210 203 196 202 204 202 209 214 215 217 217 223 229 224 221 219 222 228 225 225 232 226 213 210 214 213 208 214 223 228 212 185 181 186 190 199 201 202 206 199 200 215 225 220 219 217
325 321 318 314 311 308 306 304 301 299 297 295 294 292 291 290 289 287 284 282 279 276 270 266 262 258 257 255 251 238 228 229 229 223 220 214 205 208 217 214 211 209 208 207 201 198 199 199 206 212 212 214 215 215 220 219 215 213 217 225 227 223 223 222 212 205 209 212 210 211 219 224 204 185 188 192 194 199 205 206 206 201 201 215 226 219 220 220
332 329 325 321 317 312 310 307 302 300 298 296 294 291 290 288 286 284 279 277 275 271 269 265 256 256 263 259 252 245 232 226 226 222 219 212 200 200 213 211 206 207 207 209 207 198 197 199 203 209 211 212 211 209 214 216 211 210 212 218 226 226 221 218 213 205 204 211 216 215 217 221 214 200 194 198 203 204 207 209 208 204 204 219 229 214 220 222
334 333 329 327 324 319 317 312 307 303 300 298 296 293 290 286 285 282 276 272 269 264 262 259 248 240 248 249 244 243 233 225 225 220 217 211 201 201 208 204 203 205 200 202 207 201 196 199 203 209 210 209 209 209 213 216 214 215 215 217 221 225 225 219 216 213 207 211 217 221 223 223 220 218 211 207 208 210 214 210 208 206 206 224 232 217 224 226
334 333 331 330 327 325 323 319 314 308 303 301 298 296 292 288 287 279 272 267 265 259 249 252 254 240 234 235 233 240 235 225 225 222 216 212 205 202 200 195 197 200 197 195 202 201 196 202 207 210 211 209 210 212 215 218 221 222 221 222 222 224 227 221 217 215 209 215 219 221 227 228 223 225 221 210 207 214 218 211 208 208 209 225 236 224 226 228
333 333 331 330 329 327 327 325 321 316 312 306 303 303 297 293 288 276 273 268 261 260 253 250 256 248 233 227 224 233 236 225 223 220 215 212 207 202 197 192 191 196 198 194 198 199 200 210 214 212 211 211 213 214 216 219 222 227 226 227 226 225 226 220 216 215 208 217 224 223 228 230 227 228 223 211 208 216 217 212 213 212 210 228 242 227 218 222
334 334 332 331 330 328 328 328 325 322 320 315 311 309 302 296 288 281 280 272 259 257 259 250 248 249 237 228 229 232 230 222 220 217 212 210 206 202 199 196 194 198 197 192 196 197 205 217 217 213 213 212 215 215 216 219 220 225 227 229 230 224 225 223 219 221 216 216 228 230 232 233 231 232 230 225 224 221 217 215 218 213 213 232 250 228 210 216
335 334 333 332 331 329 328 330 329 325 324 321 317 313 307 301 293 288 285 279 267 250 255 255 250 251 240 229 235 235 228 219 216 216 214 210 206 202 200 199 198 199 198 195 198 198 207 221 217 211 212 212 215 215 215 219 220 224 223 224 228 222 220 222 219 222 220 219 231 235 237 238 235 234 232 232 232 225 218 218 218 215 223 244 260 237 213 213
336 334 333 331 331 330 328 329 330 328 327 325 320 316 311 305 299 293 288 285 277 257 251 255 252 250 242 233 235 236 230 222 212 211 217 214 206 202 200 201 200 201 203 201 202 206 212 220 215 210 212 211 214 215 213 216 219 223 222 222 225 223 222 225 223 224 223 225 234 238 242 241 236 235 233 232 232 229 222 217 216 217 226 242 253 245 230 216
336 334 332 330 329 330 328 328 331 331 332 329 322 320 315 310 306 297 295 294 286 273 259 252 247 247 244 233 230 231 230 226 212 205 219 218 205 200 200 202 205 205 207 206 207 215 219 219 212 208 210 211 213 215 212 213 218 222 223 224 225 226 228 230 231 230 226 227 231 231 239 243 236 236 236 233 231 228 222 216 219 220 221 228 230 231 234 225
336 335 332 329 327 327 328 327 329 331 332 330 324 322 318 314 310 304 305 299 290 281 266 254 247 243 236 229 228 224 224 230 219 203 216 221 206 199 200 203 208 209 209 208 210 220 222 216 213 208 208 210 212 215 215 212 219 223 222 223 225 230 233 232 233 233 228 229 230 224 228 241 239 236 236 233 231 230 221 214 217 221 220 221 223 223 228 233
337 336 333 329 326 325 326 324 324 327 328 328 326 321 318 316 310 316 317 294 283 272 249 239 234 232 223 225 227 214 210 232 221 206 209 217 205 197 202 205 207 211 207 206 214 220 219 213 212 208 206 210 212 215 215 210 217 224 220 219 222 227 231 231 233 235 232 237 241 231 228 238 242 238 233 228 229 230 220 209 211 219 219 220 227 233 232 239
337 336 334 331 326 324 324 322 322 324 326 326 325 322 319 315 306 315 315 280 238 163 213 221 219 217 203 215 225 211 204 215 214 211 206 209 207 198 204 209 207 211 205 204 215 217 214 212 209 206 206 210 214 214 212 208 215 222 217 216 220 223 227 228 231 236 235 239 242 236 232 240 243 239 235 229 229 226 213 207 212 215 217 221 228 235 236 245
337 337 335 332 327 324 322 319 317 318 322 323 323 324 319 312 306 289 270 258 213 166 206 213 212 213 202 214 222 209 206 199 206 218 208 206 208 200 205 210 208 215 212 211 219 218 214 213 210 210 210 212 215 213 210 209 215 219 216 217 220 219 222 224 228 233 235 238 239 233 231 238 244 236 232 230 231 223 213 216 220 216 219 227 229 228 233 244
339 337 336 334 330 326 323 319 316 315 318 320 321 322 315 307 282 252 238 234 240 208 200 199 200 215 208 215 218 203 203 203 201 210 204 205 208 203 206 210 210 218 219 218 223 222 219 216 212 214 214 213 213 211 211 213 214 214 213 213 213 215 220 223 225 228 234 238 236 232 231 236 245 236 228 227 227 223 219 220 217 214 218 226 227 223 230 238
341 339 337 336 332 329 325 318 315 313 312 316 318 317 313 290 243 240 238 232 236 206 185 188 175 213 205 206 218 205 199 205 203 189 190 197 202 202 203 206 209 216 220 219 221 222 221 216 212 215 215 210 210 212 210 211 210 208 208 206 203 208 212 218 219 220 231 238 231 230 231 236 244 237 229 230 228 225 225 219 213 218 227 234 231 220 223 230
342 341 338 337 334 331 327 317 313 308 306 310 310 310 309 274 239 229 248 274 255 166 147 156 29 279 227 221 229 216 204 206 206 192 189 191 195 200 200 199 200 203 212 213 212 215 218 218 213 210 211 206 205 209 204 202 204 203 204 202 200 200 200 209 212 212 228 236 229 227 225 231 241 239 232 234 232 227 226 220 215 219 226 232 227 213 215 224
344 343 340 338 335 332 327 319 313 306 303 303 300 300 282 259 244 234 250 269 284 293 285 310 306 294 266 250 240 222 211 209 206 200 196 195 198 203 203 203 200 201 208 208 204 209 212 216 214 205 206 205 203 204 199 195 199 200 200 198 197 198 194 203 209 213 228 230 226 224 221 230 240 241 234 232 231 227 224 220 217 216 216 217 215 207 209 218
345 344 341 339 336 331 326 320 311 303 300 295 290 289 262 250 256 255 256 274 319 314 301 310 311 297 273 256 238 220 213 210 206 202 199 199 202 205 205 205 205 205 210 207 205 207 205 210 211 204 203 204 203 204 201 195 196 200 201 198 203 210 209 205 210 215 225 227 221 216 219 230 235 238 235 230 228 225 223 219 214 214 210 207 212 214 210 212
347 346 346 345 341 335 329 321 314 306 298 293 291 275 257 254 260 255 264 307 330 325 313 304 300 292 274 252 238 227 217 213 207 203 203 203 204 207 205 206 206 205 209 211 207 207 210 216 213 206 205 204 201 203 201 197 198 199 200 204 209 212 216 223 224 221 226 233 220 208 216 229 234 237 233 225 222 219 218 214 208 210 207 201 214 224 216 208
350 348 351 353 347 339 331 323 317 306 295 297 288 266 255 259 265 264 302 332 328 330 328 308 277 274 267 242 232 224 216 219 210 204 207 208 210 211 208 208 207 204 207 211 208 206 213 220 214 205 204 205 202 200 199 199 197 193 198 208 210 210 217 230 234 228 230 240 228 210 214 221 228 234 224 214 217 214 212 212 208 207 204 197 207 220 216 207
351 350 358 359 350 340 332 327 319 305 297 292 276 267 267 268 275 290 316 331 326 325 328 308 281 289 276 240 223 209 208 220 215 209 209 209 211 214 213 211 209 208 209 212 215 214 215 221 213 200 200 202 200 198 201 205 201 194 200 207 207 209 220 231 236 228 223 233 230 220 216 213 215 226 223 215 214 212 210 211 210 207 204 201 200 209 213 210
351 359 1 351 346 342 335 329 322 314 302 289 272 266 272 275 287 306 312 322 326 320 311 292 289 302 293 268 245 206 202 212 212 214 212 208 205 206 209 208 204 207 209 213 222 224 219 223 212 198 197 196 193 196 202 207 207 205 205 203 201 205 211 216 225 228 221 224 226 225 226 220 218 220 221 217 212 210 206 205 208 209 208 209 204 204 211 210
358 20 355 331 343 343 336 332 332 330 303 292 284 276 288 304 311 317 315 319 323 314 297 284 286 293 288 286 290 278 238 231 241 235 217 210 202 196 198 193 191 201 204 207 218 220 215 223 212 191 191 189 189 196 202 203 204 208 212 205 204 211 211 208 214 223 225 227 224 223 225 227 229 225 220 215 207 206 206 201 203 205 202 204 202 199 205 207
6 32 328 325 345 342 338 345 345 335 307 301 300 295 313 326 319 319 319 316 314 304 289 283 287 289 286 290 293 276 260 267 282 269 232 207 184 195 201 195 188 199 202 202 206 210 214 224 215 182 181 190 195 200 203 199 196 201 208 206 203 208 212 212 215 216 221 234 233 225 227 222 222 217 211 208 200 199 205 204 204 205 201 200 200 197 200 205
8 17 314 329 350 344 349 1 348 333 322 322 319 308 313 314 311 318 317 309 305 295 284 281 282 282 282 291 295 287 278 270 269 273 257 219 157 197 216 210 203 203 206 203 200 203 212 222 218 188 182 199 205 202 204 202 197 199 203 205 201 200 204 209 211 210 216 229 233 239 254 212 150 172 196 203 202 196 197 202 203 204 205 204 203 201 200 206
6 349 322 344 357 352 1 2 339 341 335 330 329 320 315 312 312 314 311 311 306 293 282 275 276 279 277 280 282 282 286 277 260 258 266 242 190 310 260 228 220 209 209 209 203 205 213 226 223 205 194 206 211 204 204 204 203 202 204 206 205 201 204 207 207 203 209 221 229 235 246 171 112 133 156 167 187 192 190 196 197 196 200 201 202 203 204 208
0 344 330 344 354 2 8 352 339 347 336 329 329 323 320 318 318 320 320 322 317 307 297 279 275 275 266 269 278 275 276 282 267 250 257 272 268 281 276 241 225 211 206 207 204 209 217 225 225 216 205 205 206 203 204 204 204 205 206 208 208 206 206 209 211 204 204 212 214 216 233 199 140 138 145 148 170 187 192 197 195 191 190 191 194 197 201 206
356 348 326 330 349 13 12 348 342 343 334 331 330 326 328 328 325 327 329 328 324 319 314 300 285 273 263 266 277 276 269 274 273 253 253 274 273 278 274 225 192 187 194 194 194 201 210 215 215 216 207 195 195 196 197 201 205 207 206 206 209 210 208 209 211 211 213 212 204 205 223 202 160 144 157 177 184 186 189 188 183 182 180 178 182 184 188 198
350 340 320 327 350 14 1 347 341 335 332 331 329 326 327 329 326 327 328 329 326 320 317 312 295 279 275 271 269 271 262 262 271 268 268 279 280 302 284 213 183 205 198 194 193 193 201 208 209 212 208 190 192 197 194 197 202 207 207 205 207 209 208 207 208 212 217 213 208 213 205 157 149 145 145 167 182 174 167 169 171 172 169 164 169 178 187 198
345 332 323 332 353 5 345 343 334 329 331 327 326 323 321 322 321 324 328 329 328 324 320 314 296 284 286 286 282 273 256 258 266 266 276 285 286 308 286 222 245 253 206 196 195 193 203 214 210 215 221 209 184 198 202 199 200 205 207 205 205 207 208 207 209 213 214 210 213 218 206 157 153 169 161 157 169 165 155 151 155 161 166 167 172 181 191 198
341 330 326 335 347 343 333 331 318 317 322 319 316 313 314 318 317 320 324 325 327 326 317 308 301 300 300 298 299 279 253 260 266 260 270 278 283 309 287 237 312 255 207 198 200 196 214 225 216 218 228 235 240 247 217 200 202 207 208 206 205 206 207 208 211 212 208 211 215 211 212 208 160 156 170 162 154 154 153 146 145 151 156 163 173 178 184 183
334 325 325 328 328 321 318 316 310 312 314 308 305 303 306 314 319 320 320 321 323 314 306 311 323 321 306 294 299 290 267 269 272 266 274 263 262 309 285 219 297 263 195 203 218 209 221 227 221 219 226 236 246 262 272 208 206 215 214 209 206 204 206 209 212 211 207 213 218 201 205 216 197 144 151 157 150 146 147 144 144 150 146 142 154 156 163 176
329 324 322 319 316 311 307 307 308 310 308 302 296 294 299 309 318 319 317 320 318 306 304 316 327 320 310 298 292 288 280 283 289 309 316 230 179 315 302 255 354 309 352 358 283 222 210 218 222 221 225 232 235 242 252 226 220 234 223 211 207 206 206 209 211 212 210 214 217 201 198 209 210 190 160 158 160 160 162 161 154 157 161 166 162 152 160 178
324 323 319 316 318 316 307 305 306 302 302 302 295 293 300 308 313 315 316 319 314 310 315 320 316 314 313 310 295 280 278 286 287 295 315 299 215 302 308 320 52 24 6 355 339 218 200 216 231 226 228 233 227 223 229 228 229 235 221 210 208 207 207 208 209 210 211 213 214 209 202 202 207 208 197 187 189 196 207 218 211 204 216 226 211 197 190 184
313 320 319 314 317 322 313 306 304 300 300 295 286 290 298 304 309 311 314 313 304 306 317 315 310 309 307 306 298 282 275 275 273 275 290 292 279 288 297 268 346 358 339 326 340 249 211 247 249 226 231 234 222 214 220 227 233 230 222 214 210 208 208 206 206 208 210 213 214 215 215 210 204 208 213 217 223 229 235 239 238 241 245 239 233 231 215 203
295 308 318 312 312 320 318 306 300 296 294 286 281 290 296 300 305 308 310 309 300 302 308 305 304 304 298 300 298 287 276 270 267 267 274 277 267 264 275 270 276 310 304 290 310 300 279 296 246 215 229 232 220 216 218 220 231 230 223 217 211 210 209 205 204 207 209 210 213 216 216 214 206 207 214 223 231 234 237 239 244 250 248 241 238 235 229 225
Height
3151 3150 3149 3148 3147 3146 3145 3145 3144 3143 3142 3141 3141 3140 3139 3139 3139 3138 3137 3137 3136 3136 3136 3135 3135 3136 3136 3137 3137 3137 3138 3138 3138 3138 3139 3140 3139 3140 3141 3142 3144 3145 3147 3149 3151 3153 3156 3157 3158 3159 3160 3161 3161 3162 3162 3161 3162 3162 3163 3163 3162 3165 3163 3160 3161 3161 3162 3162 3162 3163 3163 3164 3165 3165 3165 3166 3167 3167 3167 3168 3168 3168 3169 3169 3168 3169 3170 3171
3149 3148 3147 3146 3145 3145 3144 3143 3142 3141 3141 3140 3139 3138 3138 3138 3137 3136 3136 3135 3135 3134 3134 3134 3134 3134 3134 3135 3135 3135 3136 3136 3135 3137 3138 3138 3138 3139 3140 3141 3142 3144 3145 3147 3149 3152 3154 3156 3157 3158 3159 3160 3161 3161 3162 3161 3162 3162 3163 3164 3163 3165 3163 3161 3162 3162 3162 3162 3163 3163 3164 3164 3165 3166 3165 3167 3169 3168 3169 3169 3168 3168 3168 3168 3168 3169 3170 3171
3148 3147 3146 3144 3144 3143 3142 3141 3140 3140 3139 3138 3137 3137 3136 3136 3135 3135 3134 3133 3133 3133 3133 3132 3132 3132 3132 3132 3132 3133 3134 3134 3133 3135 3136 3136 3136 3137 3139 3139 3140 3142 3144 3146 3149 3151 3153 3155 3157 3157 3158 3160 3161 3161 3162 3162 3161 3162 3163 3164 3164 3163 3162 3163 3163 3162 3162 3163 3164 3164 3164 3164 3165 3166 3166 3168 3169 3169 3170 3170 3169 3169 3168 3168 3169 3169 3170 3171
3146 3145 3144 3143 3141 3141 3140 3139 3138 3138 3137 3136 3135 3135 3135 3134 3134 3133 3132 3132 3131 3131 3131 3131 3131 3130 3130 3130 3131 3131 3131 3132 3131 3132 3134 3134 3134 3136 3137 3138 3139 3140 3142 3145 3147 3150 3152 3154 3155 3157 3158 3159 3161 3161 3161 3161 3161 3162 3163 3163 3163 3161 3161 3163 3163 3163 3163 3163 3164 3164 3165 3165 3165 3167 3167 3169 3169 3169 3170 3170 3170 3169 3168 3169 3169 3170 3171 3171
3144 3143 3142 3141 3140 3139 3138 3137 3136 3136 3135 3134 3133 3133 3133 3132 3132 3131 3130 3130 3130 3130 3130 3130 3129 3128 3128 3128 3129 3129 3130 3133 3130 3128 3131 3133 3133 3134 3135 3137 3138 3139 3140 3143 3145 3148 3150 3152 3154 3155 3157 3159 3161 3160 3160 3161 3161 3161 3162 3162 3161 3160 3160 3161 3162 3162 3162 3163 3164 3165 3165 3165 3166 3167 3168 3169 3169 3169 3170 3170 3170 3169 3168 3169 3169 3169 3170 3172
3143 3141 3140 3139 3138 3137 3136 3135 3134 3134 3133 3132 3131 3131 3131 3130 3130 3129 3128 3128 3128 3128 3128 3128 3128 3126 3126 3127 3127 3127 3129 3130 3126 3125 3129 3130 3131 3132 3133 3135 3136 3137 3138 3141 3143 3146 3148 3150 3152 3153 3155 3157 3160 3160 3160 3160 3160 3160 3161 3161 3161 3161 3161 3161 3162 3162 3162 3164 3165 3165 3166 3166 3167 3168 3168 3169 3169 3170 3170 3170 3170 3169 3168 3169 3169 3169 3170 3172
3141 3140 3139 3137 3136 3135 3134 3133 3132 3131 3131 3130 3129 3129 3128 3128 3128 3127 3126 3126 3126 3126 3126 3126 3126 3125 3125 3125 3125 3125 3126 3126 3124 3125 3127 3127 3128 3130 3131 3133 3135 3135 3137 3138 3141 3143 3146 3148 3149 3152 3154 3156 3158 3159 3160 3160 3160 3160 3160 3161 3161 3161 3161 3161 3162 3162 3162 3164 3165 3165 3166 3166 3167 3168 3168 3169 3169 3170 3170 3171 3170 3169 3169 3169 3169 3170 3170 3172
3140 3139 3137 3136 3135 3134 3132 3131 3130 3129 3128 3128 3127 3126 3126 3126 3125 3124 3124 3124 3124 3124 3124 3124 3124 3123 3123 3123 3123 3123 3123 3125 3124 3122 3124 3126 3126 3128 3129 3131 3133 3134 3135 3137 3139 3142 3144 3146 3148 3151 3154 3155 3158 3159 3160 3160 3160 3159 3160 3161 3161 3161 3161 3162 3162 3162 3163 3164 3165 3165 3166 3166 3167 3167 3168 3168 3169 3170 3170 3171 3170 3169 3169 3170 3170 3170 3171 3171
3139 3138 3136 3135 3133 3132 3131 3130 3129 3127 3126 3125 3125 3124 3124 3123 3123 3122 3122 3122 3122 3122 3122 3122 3122 3121 3121 3121 3121 3121 3122 3123 3122 3118 3121 3125 3125 3126 3128 3129 3131 3132 3134 3136 3138 3141 3143 3145 3147 3150 3153 3156 3157 3158 3159 3159 3159 3159 3159 3160 3161 3161 3161 3161 3161 3162 3162 3164 3164 3165 3166 3166 3167 3167 3168 3168 3169 3169 3170 3170 3169 3168 3169 3170 3170 3171 3171 3172
3138 3136 3135 3133 3132 3131 3130 3129 3127 3126 3124 3123 3122 3122 3122 3121 3120 3120 3119 3119 3119 3119 3120 3120 3120 3119 3119 3119 3119 3119 3120 3121 3120 3118 3120 3123 3123 3125 3126 3127 3129 3130 3132 3134 3136 3139 3141 3144 3147 3150 3153 3155 3156 3157 3157 3157 3158 3159 3159 3159 3160 3160 3160 3161 3161 3161 3162 3163 3164 3165 3165 3166 3166 3166 3166 3167 3168 3169 3169 3169 3169 3168 3168 3169 3170 3171 3171 3172
3136 3135 3133 3131 3130 3129 3128 3127 3125 3124 3123 3121 3120 3120 3119 3119 3118 3118 3117 3116 3116 3117 3117 3117 3117 3117 3117 3117 3116 3117 3119 3119 3118 3118 3119 3121 3122 3124 3126 3127 3128 3129 3131 3133 3135 3137 3140 3143 3147 3149 3151 3153 3154 3155 3155 3155 3157 3158 3158 3158 3159 3159 3159 3159 3159 3160 3162 3162 3163 3164 3165 3165 3165 3165 3166 3166 3167 3168 3168 3168 3168 3168 3168 3168 3169 3170 3171 3172
3134 3133 3131 3129 3128 3127 3126 3125 3123 3122 3120 3119 3118 3118 3117 3116 3116 3115 3115 3114 3114 3114 3114 3115 3114 3115 3114 3114 3114 3116 3117 3116 3116 3116 3117 3119 3121 3123 3125 3125 3127 3128 3130 3131 3134 3137 3139 3143 3146 3148 3150 3150 3152 3154 3153 3153 3155 3156 3157 3157 3157 3158 3157 3157 3158 3159 3160 3161 3162 3163 3163 3163 3163 3164 3165 3165 3166 3167 3167 3168 3168 3168 3168 3168 3169 3169 3170 3171
3132 3130 3129 3127 3125 3125 3124 3122 3121 3120 3118 3117 3116 3115 3115 3114 3113 3113 3112 3112 3111 3111 3112 3112 3111 3112 3111 3110 3113 3114 3114 3113 3113 3114 3116 3117 3119 3121 3123 3123 3126 3127 3128 3131 3134 3136 3138 3141 3144 3146 3148 3150 3151 3152 3150 3151 3153 3154 3155 3156 3156 3156 3154 3155 3156 3157 3159 3160 3161 3163 3161 3160 3161 3162 3164 3165 3165 3166 3167 3167 3167 3168 3167 3167 3167 3168 3169 3170
3129 3127 3126 3124 3122 3122 3121 3119 3118 3117 3115 3114 3113 3113 3112 3111 3111 3111 3110 3109 3109 3109 3109 3109 3109 3109 3108 3109 3112 3112 3111 3111 3111 3112 3114 3116 3117 3119 3121 3122 3124 3126 3127 3130 3134 3136 3138 3140 3143 3145 3146 3147 3149 3150 3149 3150 3152 3152 3153 3153 3153 3152 3151 3152 3154 3155 3157 3158 3160 3161 3160 3159 3159 3160 3162 3164 3164 3165 3166 3166 3165 3167 3166 3165 3166 3167 3168 3169
3126 3124 3122 3120 3119 3118 3118 3116 3115 3114 3112 3111 3110 3110 3109 3109 3108 3108 3107 3107 3106 3106 3106 3106 3106 3106 3105 3107 3108 3108 3109 3108 3109 3111 3112 3114 3116 3117 3119 3120 3122 3125 3126 3128 3132 3135 3137 3139 3141 3142 3144 3145 3147 3148 3148 3149 3150 3150 3150 3149 3150 3150 3148 3149 3151 3152 3154 3156 3158 3159 3158 3158 3158 3159 3160 3162 3163 3164 3165 3164 3163 3165 3166 3165 3166 3166 3167 3168
3123 3121 3119 3117 3115 3115 3114 3112 3111 3110 3109 3108 3107 3106 3106 3106 3105 3105 3104 3104 3104 3104 3103 3103 3103 3103 3103 3103 3104 3106 3107 3106 3108 3110 3110 3111 3114 3116 3117 3119 3121 3123 3124 3126 3129 3132 3134 3136 3138 3140 3142 3143 3143 3145 3147 3147 3146 3147 3147 3145 3146 3146 3146 3147 3148 3150 3153 3154 3155 3156 3156 3156 3157 3158 3159 3160 3162 3163 3164 3164 3163 3163 3165 3164 3164 3166 3166 3167
3121 3119 3117 3114 3112 3111 3110 3109 3107 3107 3106 3104 3104 3103 3103 3102 3102 3101 3101 3101 3101 3101 3100 3100 3100 3100 3100 3100 3102 3104 3104 3105 3106 3106 3107 3110 3112 3114 3115 3116 3119 3120 3123 3125 3126 3129 3131 3133 3135 3137 3139 3140 3141 3143 3143 3140 3140 3142 3143 3143 3143 3143 3144 3145 3145 3147 3150 3152 3152 3153 3154 3154 3155 3157 3158 3159 3160 3162 3162 3163 3163 3163 3163 3162 3163 3165 3164 3165
3119 3117 3114 3112 3109 3107 3107 3106 3104 3103 3102 3101 3100 3099 3099 3098 3098 3097 3097 3098 3097 3097 3097 3097 3097 3098 3098 3098 3099 3101 3102 3103 3103 3104 3106 3108 3110 3112 3112 3115 3117 3118 3121 3123 3124 3127 3129 3130 3133 3134 3135 3135 3136 3137 3135 3133 3136 3138 3140 3141 3141 3141 3141 3142 3143 3145 3147 3150 3151 3151 3152 3153 3154 3155 3156 3157 3159 3160 3161 3161 3162 3162 3161 3160 3160 3163 3164 3164
3118 3115 3112 3110 3107 3105 3104 3102 3100 3099 3098 3097 3096 3096 3095 3094 3094 3092 3092 3094 3093 3094 3095 3092 3092 3095 3095 3095 3097 3097 3098 3100 3100 3102 3104 3105 3108 3109 3111 3114 3115 3116 3119 3121 3121 3123 3126 3128 3129 3128 3127 3127 3129 3130 3130 3132 3136 3136 3137 3138 3139 3139 3138 3139 3141 3143 3145 3147 3148 3149 3150 3150 3152 3153 3154 3155 3157 3158 3159 3160 3160 3160 3160 3158 3157 3160 3162 3163
3116 3113 3110 3108 3105 3102 3101 3099 3097 3095 3094 3094 3093 3092 3091 3090 3091 3088 3086 3089 3089 3089 3090 3088 3088 3092 3092 3093 3095 3094 3094 3097 3098 3100 3102 3103 3105 3107 3110 3112 3114 3115 3116 3118 3119 3121 3124 3124 3121 3119 3121 3124 3126 3129 3131 3134 3135 3135 3136 3136 3136 3137 3136 3138 3140 3142 3143 3144 3145 3147 3148 3148 3149 3150 3151 3152 3154 3156 3157 3158 3158 3158 3158 3156 3156 3158 3160 3162
3113 3112 3108 3106 3103 3100 3098 3097 3095 3093 3091 3089 3089 3089 3088 3087 3087 3084 3081 3083 3085 3085 3085 3085 3085 3086 3088 3090 3091 3090 3092 3095 3096 3098 3099 3100 3102 3105 3107 3109 3111 3112 3113 3117 3119 3120 3121 3118 3115 3116 3121 3125 3127 3129 3131 3133 3134 3134 3134 3133 3133 3134 3134 3136 3138 3140 3141 3142 3143 3145 3145 3145 3146 3147 3148 3149 3151 3153 3155 3156 3156 3157 3157 3155 3155 3156 3158 3160
3111 3109 3107 3104 3101 3098 3096 3095 3092 3091 3089 3087 3086 3086 3085 3084 3084 3081 3077 3076 3080 3081 3079 3080 3080 3080 3085 3086 3084 3087 3089 3091 3093 3094 3095 3097 3098 3101 3103 3105 3107 3108 3111 3115 3116 3117 3116 3111 3112 3117 3121 3124 3125 3127 3129 3130 3132 3132 3132 3132 3131 3131 3132 3134 3136 3137 3139 3140 3142 3143 3143 3143 3144 3144 3146 3147 3148 3149 3152 3153 3154 3155 3155 3154 3153 3153 3155 3157
3108 3107 3105 3103 3100 3097 3094 3093 3090 3088 3088 3086 3084 3083 3082 3082 3080 3078 3075 3070 3073 3076 3074 3075 3076 3076 3080 3081 3080 3083 3084 3087 3089 3090 3091 3092 3094 3098 3101 3102 3104 3107 3108 3109 3110 3111 3108 3106 3110 3116 3119 3121 3123 3124 3126 3128 3129 3129 3129 3130 3128 3129 3131 3131 3132 3135 3136 3137 3139 3141 3141 3140 3141 3142 3143 3145 3145 3146 3148 3150 3152 3153 3153 3152 3152 3152 3152 3153
3106 3104 3102 3100 3099 3095 3092 3091 3089 3086 3085 3084 3082 3081 3080 3079 3077 3075 3073 3067 3065 3069 3071 3071 3072 3072 3075 3078 3078 3078 3080 3083 3086 3087 3087 3088 3091 3095 3098 3100 3102 3104 3104 3105 3106 3106 3104 3106 3110 3114 3116 3118 3119 3121 3123 3124 3125 3125 3126 3126 3126 3128 3129 3129 3130 3132 3133 3134 3136 3140 3139 3137 3138 3139 3139 3141 3143 3144 3145 3147 3149 3151 3150 3149 3149 3151 3151 3152
3104 3102 3099 3097 3096 3095 3091 3088 3087 3086 3084 3082 3080 3079 3078 3077 3076 3073 3071 3066 3060 3062 3066 3066 3066 3067 3070 3073 3072 3072 3077 3078 3080 3084 3083 3084 3089 3092 3096 3099 3099 3100 3101 3102 3105 3104 3104 3107 3109 3111 3113 3115 3116 3118 3119 3120 3121 3122 3122 3123 3126 3127 3128 3129 3129 3129 3130 3130 3133 3137 3135 3132 3134 3136 3136 3138 3139 3141 3142 3143 3145 3148 3149 3147 3146 3147 3149 3150
3102 3101 3098 3095 3093 3093 3091 3087 3085 3085 3083 3081 3079 3078 3077 3075 3075 3072 3070 3066 3059 3056 3059 3060 3061 3063 3064 3066 3065 3070 3074 3071 3075 3082 3080 3081 3086 3090 3093 3095 3095 3097 3099 3102 3104 3102 3102 3106 3107 3108 3109 3112 3113 3114 3115 3118 3119 3118 3118 3122 3125 3126 3127 3128 3128 3127 3127 3128 3131 3133 3131 3128 3129 3131 3132 3134 3136 3136 3137 3139 3141 3144 3146 3146 3145 3146 3147 3147
3100 3099 3097 3094 3090 3089 3089 3086 3085 3083 3082 3081 3078 3077 3076 3074 3074 3072 3071 3067 3057 3052 3053 3055 3057 3058 3060 3060 3060 3066 3069 3066 3070 3075 3075 3077 3083 3087 3089 3091 3091 3093 3097 3101 3099 3096 3098 3102 3104 3105 3107 3108 3109 3110 3112 3115 3116 3115 3117 3121 3122 3124 3126 3126 3128 3126 3125 3128 3128 3128 3128 3125 3123 3125 3127 3130 3131 3131 3133 3135 3137 3140 3143 3144 3144 3144 3144 3144
3098 3096 3095 3093 3089 3087 3086 3084 3083 3081 3080 3079 3077 3076 3074 3074 3073 3073 3074 3068 3054 3049 3051 3051 3052 3053 3055 3055 3055 3060 3063 3063 3065 3067 3070 3074 3078 3082 3084 3086 3089 3090 3094 3095 3091 3091 3095 3097 3099 3101 3103 3104 3104 3106 3109 3112 3113 3113 3117 3119 3120 3122 3123 3125 3127 3125 3126 3128 3124 3124 3125 3121 3118 3121 3125 3126 3126 3127 3129 3132 3134 3137 3139 3141 3142 3141 3140 3141
3095 3093 3092 3090 3088 3086 3084 3082 3081 3079 3078 3077 3076 3075 3074 3073 3073 3073 3076 3067 3052 3049 3050 3050 3051 3052 3052 3053 3053 3057 3060 3063 3064 3064 3067 3070 3073 3077 3079 3082 3088 3090 3090 3090 3089 3091 3093 3093 3097 3099 3099 3099 3101 3104 3107 3109 3110 3113 3116 3117 3118 3120 3121 3123 3124 3124 3126 3122 3118 3120 3122 3117 3114 3118 3122 3123 3122 3123 3126 3129 3132 3134 3136 3137 3140 3140 3139 3139
3092 3090 3089 3087 3086 3084 3082 3080 3078 3077 3076 3075 3074 3073 3073 3073 3073 3073 3071 3062 3051 3048 3049 3051 3052 3051 3051 3052 3053 3054 3057 3061 3063 3062 3064 3067 3070 3074 3078 3082 3086 3087 3088 3088 3088 3089 3090 3092 3094 3095 3095 3097 3100 3103 3104 3106 3108 3112 3114 3115 3117 3118 3120 3121 3120 3123 3122 3113 3112 3117 3119 3117 3111 3112 3117 3118 3118 3121 3124 3126 3128 3131 3132 3133 3137 3139 3138 3138
3090 3088 3086 3085 3083 3082 3081 3079 3077 3075 3074 3073 3072 3072 3072 3072 3073 3071 3063 3054 3049 3049 3049 3051 3052 3051 3052 3053 3053 3052 3055 3058 3060 3059 3061 3064 3067 3070 3074 3077 3080 3083 3084 3083 3083 3086 3088 3089 3089 3090 3092 3095 3098 3100 3101 3104 3106 3109 3110 3112 3115 3116 3118 3119 3118 3121 3115 3105 3109 3114 3116 3117 3108 3105 3113 3114 3115 3119 3120 3123 3124 3126 3128 3129 3133 3138 3137 3137
3088 3086 3083 3082 3081 3079 3079 3077 3075 3074 3072 3071 3071 3070 3071 3071 3069 3065 3057 3051 3050 3048 3047 3049 3049 3050 3051 3051 3051 3051 3052 3054 3056 3056 3058 3059 3061 3062 3063 3066 3069 3073 3073 3073 3078 3081 3083 3083 3084 3087 3089 3090 3094 3096 3098 3100 3103 3105 3106 3108 3110 3110 3112 3113 3111 3111 3106 3101 3107 3111 3113 3111 3101 3103 3112 3112 3113 3116 3116 3120 3121 3123 3125 3126 3130 3135 3136 3135
3085 3083 3081 3079 3078 3076 3076 3074 3073 3071 3070 3070 3069 3069 3071 3069 3063 3060 3057 3053 3050 3046 3046 3047 3046 3046 3047 3047 3048 3049 3050 3051 3052 3054 3055 3057 3058 3058 3059 3062 3065 3065 3065 3069 3074 3075 3077 3080 3082 3082 3083 3085 3089 3090 3091 3094 3097 3099 3101 3102 3103 3102 3104 3106 3104 3102 3100 3100 3105 3108 3108 3103 3098 3103 3108 3108 3111 3113 3114 3117 3118 3120 3123 3124 3127 3131 3134 3135
3083 3080 3078 3076 3075 3073 3073 3072 3070 3069 3068 3068 3068 3068 3069 3065 3059 3058 3056 3052 3048 3046 3045 3045 3043 3044 3045 3045 3045 3046 3048 3048 3049 3051 3052 3054 3054 3054 3056 3059 3061 3063 3066 3068 3069 3068 3070 3070 3071 3073 3076 3078 3082 3085 3087 3090 3094 3096 3097 3100 3100 3097 3097 3098 3098 3097 3097 3098 3100 3103 3102 3097 3097 3100 3102 3104 3107 3110 3112 3113 3115 3118 3121 3123 3124 3126 3132 3134
3080 3077 3075 3073 3071 3071 3070 3069 3068 3067 3066 3066 3067 3067 3065 3060 3057 3056 3054 3050 3047 3046 3044 3042 3043 3044 3044 3043 3043 3044 3044 3044 3046 3048 3048 3048 3048 3048 3050 3052 3055 3060 3063 3062 3062 3063 3064 3061 3064 3069 3072 3074 3077 3081 3086 3089 3090 3092 3096 3097 3094 3093 3094 3093 3092 3092 3094 3094 3093 3095 3095 3094 3097 3098 3099 3101 3103 3106 3109 3110 3113 3115 3117 3120 3120 3121 3128 3133
3078 3075 3072 3071 3070 3069 3068 3067 3066 3065 3065 3064 3065 3064 3061 3058 3056 3054 3052 3050 3049 3047 3044 3043 3045 3044 3042 3041 3040 3041 3042 3041 3042 3044 3044 3045 3045 3046 3048 3049 3051 3055 3057 3057 3057 3058 3058 3059 3063 3067 3069 3072 3074 3078 3083 3084 3085 3088 3090 3089 3089 3093 3094 3092 3091 3091 3091 3090 3088 3088 3090 3093 3096 3096 3096 3098 3100 3102 3105 3107 3110 3111 3114 3117 3117 3118 3124 3130
3076 3073 3071 3070 3070 3068 3066 3065 3064 3063 3063 3064 3064 3061 3058 3057 3055 3053 3052 3051 3050 3049 3048 3047 3045 3043 3041 3039 3037 3039 3041 3040 3040 3040 3040 3041 3043 3044 3046 3047 3049 3051 3053 3055 3055 3055 3056 3056 3059 3061 3064 3068 3073 3076 3080 3081 3082 3083 3083 3084 3089 3094 3094 3092 3090 3088 3089 3090 3086 3084 3085 3089 3092 3092 3093 3095 3096 3099 3100 3103 3106 3108 3111 3114 3115 3116 3120 3125
3075 3071 3070 3070 3068 3067 3065 3063 3062 3062 3062 3062 3062 3060 3058 3057 3055 3053 3053 3052 3051 3051 3051 3049 3045 3043 3041 3038 3036 3037 3038 3038 3038 3038 3037 3038 3038 3039 3042 3044 3045 3046 3050 3054 3053 3053 3054 3053 3053 3057 3061 3065 3070 3074 3076 3077 3079 3080 3081 3084 3087 3087 3087 3089 3089 3086 3086 3087 3085 3083 3084 3085 3087 3088 3090 3091 3092 3095 3097 3100 3102 3105 3107 3110 3113 3115 3116 3121
3074 3072 3073 3072 3068 3065 3064 3062 3061 3061 3062 3061 3060 3058 3057 3055 3054 3053 3053 3053 3052 3051 3051 3049 3047 3044 3041 3039 3038 3037 3037 3037 3036 3036 3036 3035 3034 3035 3036 3038 3039 3041 3044 3048 3049 3051 3053 3051 3048 3051 3058 3063 3067 3067 3066 3069 3074 3078 3080 3081 3081 3082 3082 3084 3085 3084 3083 3082 3082 3082 3081 3081 3082 3084 3087 3088 3090 3093 3095 3097 3100 3102 3105 3107 3110 3113 3114 3117
3073 3073 3075 3071 3067 3065 3063 3061 3061 3062 3062 3061 3060 3057 3055 3054 3053 3053 3053 3053 3052 3052 3051 3049 3048 3045 3041 3039 3040 3039 3037 3036 3034 3034 3033 3031 3031 3032 3032 3033 3034 3036 3038 3041 3045 3049 3051 3050 3046 3048 3055 3058 3057 3056 3057 3061 3066 3070 3073 3074 3075 3078 3080 3081 3081 3082 3082 3080 3078 3078 3076 3075 3077 3080 3083 3086 3088 3091 3093 3095 3098 3100 3102 3105 3107 3110 3112 3115
3073 3075 3075 3069 3066 3064 3062 3062 3063 3063 3062 3061 3059 3058 3056 3054 3053 3053 3053 3052 3051 3051 3050 3048 3047 3045 3042 3040 3040 3039 3038 3036 3034 3033 3031 3029 3029 3030 3030 3030 3031 3034 3036 3039 3044 3047 3049 3048 3045 3046 3050 3050 3049 3051 3056 3060 3062 3065 3067 3069 3070 3073 3076 3076 3075 3077 3080 3079 3077 3078 3075 3073 3075 3079 3081 3085 3088 3089 3091 3093 3095 3098 3100 3103 3105 3108 3110 3112
3073 3074 3072 3067 3065 3063 3062 3064 3064 3062 3062 3060 3059 3058 3056 3054 3053 3053 3052 3050 3049 3049 3048 3047 3046 3045 3042 3041 3041 3040 3038 3036 3033 3032 3030 3028 3029 3028 3027 3028 3029 3033 3036 3039 3044 3046 3047 3046 3043 3042 3045 3047 3048 3052 3055 3058 3061 3064 3065 3066 3068 3070 3071 3070 3071 3073 3077 3078 3078 3079 3077 3074 3076 3079 3082 3084 3086 3088 3090 3092 3094 3096 3098 3101 3103 3106 3108 3110
3072 3073 3070 3066 3064 3063 3063 3064 3063 3061 3061 3059 3057 3057 3055 3054 3053 3052 3050 3049 3048 3046 3045 3044 3043 3042 3040 3039 3039 3039 3038 3035 3032 3031 3030 3030 3029 3027 3027 3028 3029 3032 3036 3039 3044 3047 3046 3044 3042 3040 3042 3045 3048 3051 3053 3056 3059 3059 3060 3063 3064 3065 3067 3068 3070 3072 3073 3075 3076 3078 3078 3076 3076 3078 3081 3083 3085 3087 3089 3090 3092 3094 3097 3099 3101 3104 3106 3108
3072 3072 3070 3066 3063 3063 3064 3063 3062 3060 3059 3058 3056 3056 3054 3053 3052 3050 3049 3048 3046 3045 3044 3043 3041 3040 3038 3037 3037 3037 3038 3036 3032 3031 3031 3031 3029 3027 3028 3029 3029 3031 3033 3034 3037 3039 3039 3041 3042 3039 3038 3040 3042 3044 3047 3050 3052 3052 3054 3058 3060 3063 3066 3068 3070 3071 3070 3070 3072 3074 3076 3076 3075 3077 3080 3083 3085 3086 3088 3089 3091 3093 3096 3098 3100 3102 3103 3104
3072 3073 3070 3066 3063 3063 3064 3062 3060 3060 3058 3057 3056 3055 3054 3053 3052 3050 3048 3047 3045 3044 3043 3042 3040 3038 3037 3036 3035 3036 3037 3036 3033 3031 3031 3031 3029 3027 3027 3028 3028 3028 3028 3028 3030 3032 3034 3037 3039 3036 3032 3033 3035 3036 3038 3042 3045 3048 3050 3053 3057 3060 3062 3064 3067 3068 3067 3068 3071 3071 3072 3073 3074 3077 3080 3082 3084 3086 3087 3088 3090 3092 3095 3097 3097 3098 3100 3102
3073 3073 3069 3065 3063 3063 3063 3061 3060 3059 3058 3056 3055 3054 3053 3052 3051 3050 3048 3046 3045 3043 3042 3041 3040 3038 3037 3036 3035 3035 3035 3035 3033 3032 3031 3030 3029 3028 3027 3028 3028 3026 3026 3027 3030 3032 3034 3036 3036 3034 3031 3032 3034 3035 3037 3040 3042 3044 3046 3049 3053 3056 3059 3062 3063 3063 3065 3068 3070 3070 3071 3072 3074 3077 3079 3081 3083 3085 3087 3088 3089 3092 3094 3094 3094 3096 3099 3101
3073 3072 3069 3065 3062 3062 3062 3061 3059 3058 3057 3056 3055 3053 3052 3051 3050 3049 3047 3046 3044 3042 3041 3040 3039 3038 3037 3036 3035 3034 3033 3033 3032 3032 3031 3030 3028 3027 3027 3028 3028 3027 3028 3030 3031 3033 3035 3034 3034 3035 3033 3034 3036 3036 3037 3038 3040 3042 3044 3046 3049 3053 3056 3058 3058 3060 3065 3067 3067 3069 3072 3073 3074 3077 3079 3081 3083 3084 3086 3089 3090 3091 3093 3094 3094 3097 3099 3101
3072 3070 3068 3065 3063 3062 3061 3060 3058 3056 3055 3055 3054 3052 3052 3051 3050 3048 3047 3045 3044 3042 3040 3039 3038 3038 3037 3036 3035 3034 3032 3032 3030 3029 3028 3027 3027 3027 3028 3029 3030 3029 3030 3032 3032 3033 3034 3033 3034 3036 3035 3035 3037 3037 3037 3038 3039 3041 3042 3043 3046 3049 3052 3054 3056 3060 3064 3065 3065 3068 3071 3073 3075 3077 3078 3080 3082 3084 3086 3089 3090 3091 3093 3095 3095 3097 3099 3100
3070 3068 3066 3064 3062 3060 3059 3058 3056 3055 3054 3053 3052 3051 3050 3049 3049 3048 3046 3045 3043 3041 3039 3039 3038 3037 3036 3035 3035 3033 3033 3032 3030 3028 3027 3027 3027 3027 3028 3029 3029 3030 3030 3032 3032 3032 3032 3034 3035 3036 3036 3036 3037 3038 3038 3039 3039 3039 3039 3041 3043 3046 3049 3052 3055 3059 3062 3064 3066 3068 3070 3072 3075 3077 3079 3080 3082 3084 3086 3087 3089 3091 3093 3094 3095 3097 3099 3101
3068 3066 3064 3062 3060 3058 3057 3056 3055 3054 3053 3052 3051 3049 3049 3048 3047 3046 3045 3044 3042 3040 3039 3038 3038 3037 3035 3034 3033 3032 3032 3031 3029 3028 3028 3028 3027 3027 3027 3027 3026 3027 3029 3031 3032 3032 3034 3035 3034 3034 3035 3034 3035 3037 3038 3038 3039 3039 3039 3040 3041 3044 3047 3050 3053 3056 3059 3062 3065 3067 3069 3071 3073 3075 3078 3080 3081 3082 3084 3085 3087 3089 3091 3093 3094 3096 3098 3100
3066 3065 3063 3060 3058 3056 3055 3054 3054 3053 3052 3051 3050 3049 3048 3047 3046 3045 3043 3042 3041 3039 3038 3038 3037 3036 3034 3033 3031 3031 3031 3030 3029 3028 3028 3028 3027 3026 3027 3027 3027 3028 3030 3031 3031 3032 3034 3034 3033 3034 3034 3032 3033 3036 3037 3038 3040 3040 3039 3039 3040 3042 3044 3047 3050 3053 3056 3059 3062 3064 3066 3069 3072 3074 3076 3077 3079 3080 3082 3084 3085 3087 3088 3090 3092 3094 3096 3097
3063 3063 3062 3059 3056 3054 3054 3053 3052 3052 3051 3050 3048 3047 3046 3045 3044 3043 3042 3040 3039 3038 3038 3037 3035 3034 3034 3032 3031 3029 3029 3028 3027 3027 3027 3027 3026 3026 3027 3028 3028 3030 3031 3032 3032 3033 3034 3033 3032 3033 3032 3031 3032 3034 3037 3041 3040 3036 3036 3039 3041 3042 3044 3046 3049 3052 3054 3057 3060 3062 3065 3068 3070 3072 3074 3076 3077 3078 3080 3082 3083 3084 3085 3087 3088 3090 3093 3094